Location: Bittelbronn
(48.4454°N, 8.5870°E)
Time: 12:19:10
(UTC+00:00)

SJ 16-02 - Pass Details

Date: 21 April 2025
Orbit: 587 x 597 km, 75.0° (Epoch: 15 May)

Event Time Altitude Azimuth Distance (km) Brightness Sun altitude
Rises 20:02:51 0° 336° (NNW) 2,849 5.9 -14.8°
Reaches altitude 10° 20:05:06 10° 334° (NNW) 1,943 5.0 -15.1°
Maximum altitude 20:09:24 69° 252° (WSW) 645 1.5 -15.7°
Enters shadow 20:12:13 21° 173° (S) 1,364 2.7 -16.0°
